Regional Weather Roundup
Issued by NWS

Home | Current Version | Previous Version | Graphics & Text | Print | Product List | Glossary On
Versions: 1 2 3 4 5 6 7 8 9 10 11 12 13 14 15 16 17 18 19 20 21 22 23 24 25 26 27 28 29 30 31 32 33 34 35 36 37 38 39 40 41 42 43 44 45 46 47 48 49 50
000
ASUS45 KSLC 221010
RWRUT

UTAH REGIONAL WEATHER ROUNDUP
NATIONAL WEATHER SERVICE SALT LAKE CITY UT
400 AM MDT SUN OCT 22 2017

UTZ001>011-023>025-221100-

NORTHERN UTAH

CITY           SKY/WX    TMP DP  RH WIND       PRES   REMARKS
BRIGHAM CITY   CLOUDY    45  23  41 N5        30.35R
HILL AFB       CLOUDY    46  19  34 SE3       30.33R
LOGAN          CLOUDY    42  30  62 CALM      30.33R
OGDEN          CLOUDY    46  22  38 S7        30.33R
SALT LAKE CITY PTCLDY    45  25  45 SE7       30.33R
TOOELE VALLEY  MOCLDY    41  21  45 S6        30.33R
WENDOVER       CLEAR     39  21  48 CALM      30.33R
WEST JORDAN    CLEAR     42  22  43 S8        30.34R

$$

UTZ011>015-024>027-221100-

CENTRAL/NORTHEAST UTAH

CITY           SKY/WX    TMP DP  RH WIND       PRES   REMARKS
PROVO AIRPORT  CLEAR     35  25  66 CALM      30.37R
MOAB/CANYONLAN CLEAR     33   9  36 CALM      30.35S
DELTA          CLEAR     32  14  47 CALM      30.36S
PRICE          CLEAR     32  15  49 N9        30.36F WCI  24
RICHFIELD      CLEAR     28  18  64 CALM      30.41
ROOSEVELT      CLOUDY    34  18  51 N6        30.36S WCI  29
VERNAL         CLOUDY    31  17  56 W5        30.34F WCI  26

$$

UTZ013>016-019>022-027-221100-

SOUTHERN UTAH

CITY           SKY/WX    TMP DP  RH WIND       PRES   REMARKS
BRYCE CANYON   CLEAR     28  11  48 NW5       30.43F WCI  23
CEDAR CITY     CLEAR     31  15  52 W3        30.36F
MILFORD        CLEAR     30  11  45 SW7       30.35F WCI  23
ST GEORGE      SUNNY     45  12  26 SE6       30.32S
HANKSVILLE     CLEAR     32  12  43 CALM      30.38R
BLANDING         N/A     34   8  33 CALM      30.44F

$$

REGIONAL REPORTS     COLORADO/ARIZONA

CITY           SKY/WX    TMP DP  RH WIND       PRES   REMARKS
CRAIG, CO      CLOUDY    28  23  81 CALM      30.36F
GRAND JUNCTION CLOUDY    36  15  42 E8        30.39S WCI  30
RIFLE, CO      CLOUDY    29  23  78 CALM      30.42S
MONTROSE, CO   CLOUDY    30  16  56 S6        30.44R WCI  24
CORTEZ, CO     CLOUDY    27  11  51 E3        30.39S
COLORADO CITY    N/A     37  14  38 SE5       30.37F WCI  34
PAGE, AZ       CLEAR     46  16  30 S3        30.33F
GRAND CANYON   PTCLDY    28   6  39 NE5       30.41S WCI  23
KINGMAN, AZ    CLEAR     53  13  20 E6        30.28F
FLAGSTAFF, AZ  PTCLDY    26  10  50 CALM      30.40S

$$

REGIONAL REPORTS    NEVADA/IDAHO/WYOMING

CITY           SKY/WX    TMP DP  RH WIND       PRES   REMARKS
LAS VEGAS, NV  CLEAR     56  17  21 SW3       30.26F
ELY, NY        CLEAR     35  20  54 S13       30.40S WCI  26
ELKO, NV       MOCLDY    34  26  72 CALM      30.33S
POCATELLO, ID  CLOUDY    48  33  56 SW14      30.25F
BURLEY, ID     MOCLDY    43  37  79 SW12      30.25R
FORT BRIDGER,  PTSUNNY   37  19  46 W15       30.33S WCI  28
EVANSTON, WY   CLOUDY    37  18  46 SW21G28   30.31F WCI  26
ROCK SPRINGS,  CLOUDY    36  16  44 W20G35    30.29F WCI  25
KEMMERER, WY   CLOUDY    32  21  64 S3        30.30S

$$



USA.gov is the U.S. government's official web portal to all federal, state and local government web resources and services.